Flag for U.S.A. Weather past 2 weeks in Boise, Idaho, U.S.A.

Now
51 °F

Sunny.


Feels Like: 50 °F
Forecast: 41 / 73 °F
Wind: 5 mph from South

Location: Boise Air Terminal


UV Index: 5 (Moderate)

Visibility: 10 mi


Pressure: 29.96 "Hg

Humidity: 36%

Dew point: 25 °F

Location of BoiseLocation

Historic Weather in Boise

°F

Boise temperature yesterday

Maximum temperature yesterday: 75 °F (at 4:53 PM)
Minimum temperature yesterday: 41 °F (at 2:53 AM)
Average temperature yesterday: 58 °F

Past Weeks' High & Low Weather Summary

 TemperatureHumidityPressure
High75 °F (Apr 8, 3:53 PM)90% (Apr 6, 3:53 AM)30.34 "Hg (Apr 6, 3:53 AM)
Low34 °F (Apr 16, 5:53 AM)13% (Apr 14, 3:53 PM)29.59 "Hg (Apr 17, 6:53 PM)
Average53 °F45%30.01 "Hg
* Reported Apr 3 9:53 PM — Apr 18 9:53 PM, Boise, Weather by CustomWeather, © 2014

Note: Actual official high and low records may vary slightly from our data, if they occured in-between our weather recording intervals... More about our weather records

Advertising

Historic Weather Conditions — Data for Previous 24 hours

 ConditionsComfort  
Time TempWeatherWind HumidityBarometerVisibility
9:53 PM
Apr 18
51 °FSunny.5 mph36%29.96 "Hg10 mi
8:53 PM56 °FSunny.No wind26%29.94 "Hg10 mi
7:53 PM59 °FSunny.9 mph22%29.93 "Hg10 mi
6:53 PM61 °FSunny.10 mph20%29.93 "Hg10 mi
5:53 PM60 °FSunny.10 mph25%29.95 "Hg10 mi
4:53 PM61 °FSunny.8 mph27%29.95 "Hg10 mi
3:53 PM61 °FSunny.15 mph24%29.96 "Hg10 mi
2:53 PM59 °FSunny.12 mph32%29.98 "Hg10 mi
1:53 PM58 °FSunny.14 mph38%30.00 "Hg10 mi
12:53 PM56 °FPassing clouds.10 mph44%30.01 "Hg10 mi
11:53 AM53 °FPartly sunny.8 mph48%30.01 "Hg10 mi
10:53 AM52 °FPartly sunny.14 mph57%30.01 "Hg10 mi
9:53 AM51 °FOvercast.10 mph63%29.99 "Hg10 mi
8:53 AM50 °FMostly cloudy.7 mph68%29.96 "Hg10 mi
7:53 AM49 °FOvercast.5 mph71%29.93 "Hg10 mi
6:53 AM48 °FOvercast.5 mph74%29.90 "Hg10 mi
5:53 AM48 °FPassing clouds.3 mph74%29.90 "Hg10 mi
4:53 AM48 °FPassing clouds.5 mph74%29.88 "Hg10 mi
3:53 AM49 °FPassing clouds.3 mph69%29.86 "Hg10 mi
2:53 AM49 °FOvercast.12 mph69%29.86 "Hg10 mi
1:53 AM50 °FOvercast.14 mph71%29.84 "Hg10 mi
12:53 AM50 °FPassing clouds.12 mph83%29.82 "Hg10 mi
11:53 PM
Apr 17
51 °FLight rain. Overcast.9 mph89%29.81 "Hg10 mi
Weather by CustomWeather, © 2014

See weather overview